www.pogodaiklimat.ru

Погода и климат >> Архив погоды >> Австралия >> Новый Южный Уэльс >> Даббо


ПОГОДА в Даббо

  • Прогноз погоды в Даббо
  • Монитор погоды в Даббо

АРХИВ ПОГОДЫ в Даббо

Время (UTC), дата Ветер
(напр.,м/с)
 
Видим.   Явления Облачность Т
(С)
Тd
(С)
f
(%)
Тe
(С)
Тes
(С)
Комфортность P
(гПа)
Po
(гПа)
Тmin
(С)
Tmax
(С)
R
(мм)
R24
(мм)
S
(см)
04 11.07 З 7 н/о н/о +15.4 +1.2 38 +14 +14 1016.9 982.7
05 11.07 З 8 н/о 1/1 1000 м
[]
+15.0 +2.9 44 +13 +13 1017.2 983.0
06 11.07 З 7 н/о н/о +14.2 +3.1 47 +12 +12 1017.9 983.7
07 11.07 З 7 н/о н/о +13.5 +2.7 48 +11 +11 1018.3 984.1
08 11.07 З 3 н/о н/о +11.1 +2.7 56 +10 +10 1018.8 984.5
09 11.07 З 2 н/о н/о +8.8 +2.4 64 +7 +7 1019.6 985.3
10 11.07 СЗ 1 н/о н/о +8.3 +3.0 69 +9 +9 1020.0 985.7
11 11.07 ЮЗ 2 н/о н/о +8.1 +3.2 71 +7 +7 1020.4 986.1
12 11.07 З 2 н/о н/о +6.9 +2.6 74 +5 +5 1020.6 986.3
13 11.07 З 1 н/о н/о +6.1 +2.7 79 +6 +6 1020.5 986.2
14 11.07 З 1 н/о н/о +6.3 +3.3 81 +5 +5 1020.1 985.8 +16.0
15 11.07 С 2 н/о н/о +4.4 +2.4 87 +2 +2 1019.6 985.3
16 11.07 З 2 н/о н/о +4.8 +3.0 88 +3 +3 1019.6 985.3
17 11.07 З 2 н/о н/о +4.7 +2.9 88 +3 +3 1019.3 985.0
18 11.07 штиль 0 н/о н/о +3.8 +2.5 91 +3 +3 1018.7 984.4
19 11.07 штиль 0 н/о н/о +4.0 +3.0 93 +3 +3 1018.7 984.4
20 11.07 С 2 н/о н/о +2.9 +1.7 92 0 0 1019.4 985.1
21 11.07 С 1 н/о н/о +3.8 +2.8 93 +2 +2 1019.8 985.5
22 11.07 СВ 1 н/о н/о +5.7 +4.5 92 +6 +6 1019.9 985.6
23 11.07 СЗ 3 н/о 10/10 1000 м
[]
+8.2 +5.7 84 +6 +6 1019.9 985.6
00 12.07 СЗ 5 н/о н/о +10.7 +5.9 72 +8 +8 1020.1 985.8
01 12.07 СЗ 5 н/о н/о +13.2 +6.1 62 +11 +11 1019.6 985.3
02 12.07 СЗ 6 н/о 10/10 1500 м
[]
+15.2 +6.7 57 +14 +14 1018.3 984.1 +2.9
03 12.07 СЗ 8 н/о н/о +16.7 +5.3 47 +15 +15 1017.2 983.0
04 12.07 З 9 н/о н/о +17.6 +4.9 43 +16 +16 1016.6 982.4
05 12.07 З 8 н/о 6/6 1500 м
[]
+17.6 +5.2 44 +17 +17 1015.9 981.7
06 12.07 З 8 н/о н/о +17.1 +4.8 44 +16 +16 1015.7 981.5
07 12.07 СЗ 7 н/о н/о +16.2 +4.9 47 +15 +15 1015.5 981.3
08 12.07 З 4 н/о 1/1 1500 м
[]
+14.2 +4.8 53 +13 +13 1015.7 981.5
09 12.07 З 3 н/о н/о +12.2 +4.9 61 +11 +11 1016.0 981.8
10 12.07 З 3 н/о н/о +10.7 +4.8 67 +9 +9 1016.5 982.3
11 12.07 СЗ 2 н/о 5/5 1500 м
[]
+9.8 +4.4 69 +9 +9 1016.7 982.5
12 12.07 СЗ 3 н/о н/о +10.7 +5.5 70 +9 +9 1016.9 982.7
13 12.07 З 5 н/о н/о +12.2 +4.7 60 +10 +10 1016.6 982.4
14 12.07 З 5 н/о 9/9 1500 м
[]
+12.2 +4.4 59 +10 +10 1016.3 982.1 +19.0
15 12.07 СЗ 4 н/о н/о +12.0 +4.5 60 +10 +10 1015.5 981.3
16 12.07 СЗ 5 н/о н/о +11.7 +4.4 61 +10 +10 1014.9 980.8
17 12.07 СЗ 6 н/о 10/0 2000 м
[]
+12.1 +4.3 59 +10 +10 1014.5 980.4
18 12.07 СЗ 6 н/о н/о +11.4 +4.4 62 +9 +9 1014.4 980.3
19 12.07 З 7 н/о н/о +11.9 +4.4 60 +9 +9 1014.7 980.6
20 12.07 ЮЗ 8 н/о 10/10 300 м
[]
+9.6 +6.0 78 +6 +6 1016.1 981.9
21 12.07 З 5 н/о н/о +8.7 +5.4 80 +5 +5 1017.1 982.9
22 12.07 З 6 н/о н/о +8.7 +5.3 79 +5 +5 1018.6 984.3
23 12.07 ЮЗ 7 н/о 10/10 1000 м
[]
+9.6 +2.2 60 +6 +6 1019.4 985.1
00 13.07 ЮЗ 7 н/о н/о +10.6 +0.9 51 +8 +8 1020.4 986.1
01 13.07 ЮЗ 9 н/о н/о +10.2 +0.3 50 +7 +7 1020.9 986.6
02 13.07 З 10 н/о 1/1 1000 м
[]
+11.2 -1.2 42 +8 +8 1020.7 986.4 +8.6
03 13.07 ЮЗ 8 н/о н/о +11.0 +1.0 50 +8 +8 1020.6 986.3
04 13.07 ЮЗ 10 н/о н/о +12.6 -2.1 36 +10 +10 1020.6 986.3
05 13.07 З 10 н/о 1/1 1500 м
[]
+10.6 -1.8 42 +7 +7 1021.2 986.9
06 13.07 З 9 н/о н/о +12.3 -1.2 39 +9 +9 1021.7 987.3
07 13.07 ЮЗ 9 н/о н/о +10.3 -1.4 44 +7 +7 1022.5 988.1
08 13.07 З 6 н/о н/о +8.8 -0.8 51 +5 +5 1023.0 988.6
09 13.07 ЮЗ 5 н/о н/о +7.6 -0.6 56 +4 +4 1023.8 989.4
10 13.07 З 3 н/о н/о +6.3 -0.2 63 +4 +4 1025.0 990.5
11 13.07 З 4 н/о н/о +4.8 -0.2 70 +1 +1 1025.3 990.8
12 13.07 З 2 н/о н/о +5.2 +0.6 72 +3 +3 1025.8 991.3
13 13.07 З 3 н/о н/о +3.2 -0.1 79 -1 -1 1026.0 991.5
14 13.07 З 3 н/о н/о +3.8 +0.7 80 0 0 1026.1 991.6 +13.6
15 13.07 З 4 н/о н/о +1.7 -0.4 86 -3 -3 1025.7 991.2
17 13.07 штиль 0 н/о н/о +1.3 0.0 91 0 0 1025.7 991.2
18 13.07 штиль 0 н/о н/о +0.9 +0.2 95 -0 -0 1025.9 991.4
19 13.07 штиль 0 н/о н/о +0.7 +0.1 96 -1 -1 1026.2 991.7
20 13.07 С 1 н/о н/о -0.4 -0.8 97 -1 -1 1026.5 992.0
21 13.07 З 2 н/о н/о +0.1 -0.2 98 -3 -3 1027.2 992.7
22 13.07 С 2 н/о н/о +0.6 +0.3 98 -3 -3 1027.7 993.1
23 13.07 ЮЗ 5 н/о н/о +5.9 +3.6 85 +2 +2 1027.8 993.2
00 14.07 ЮЗ 5 н/о н/о +8.2 +2.9 69 +5 +5 1027.9 993.3
01 14.07 З 5 н/о н/о +9.2 +1.9 60 +6 +6 1027.8 993.2
02 14.07 З 6 н/о 1/1 600 м
[]
+10.5 +1.6 54 +8 +11 1026.8 992.3 -1.7
03 14.07 З 8 н/о н/о +10.9 +1.4 52 +8 +8 1025.8 991.3
04 14.07 ЮЗ 7 н/о н/о +11.5 +0.9 48 +9 +9 1025.0 990.5
05 14.07 З 6 н/о н/о +11.8 0.0 44 +9 +9 1024.0 989.6
06 14.07 З 7 н/о н/о +11.4 -0.7 43 +9 +9 1023.8 989.4
07 14.07 ЮЗ 7 н/о н/о +9.8 -1.3 46 +7 +7 1023.8 989.4
08 14.07 ЮЗ 4 н/о н/о +7.0 0.0 61 +4 +4 1023.9 989.5
09 14.07 ЮЗ 3 н/о н/о +5.5 +0.1 68 +2 +2 1024.1 989.7
10 14.07 З 5 н/о н/о +7.7 +1.8 66 +4 +4 1023.9 989.5
11 14.07 З 8 н/о 9/9 1000 м
[]
+8.9 +1.6 60 +5 +5 1023.8 989.4
12 14.07 З 7 н/о н/о +8.8 +1.5 60 +5 +5 1022.9 988.5
13 14.07 З 7 н/о н/о +8.7 +1.8 62 +5 +5 1022.4 988.0
14 14.07 З 6 н/о 9/9 1000 м
[]
+8.8 +1.9 62 +5 +5 1021.9 987.5 +12.5
15 14.07 З 5 н/о н/о +8.7 +2.3 64 +6 +6 1020.9 986.6
16 14.07 З 5 н/о н/о +8.9 +2.5 64 +6 +6 1020.6 986.3
17 14.07 З 6 н/о 10/10 1000 м
[]
+9.2 +3.2 66 +6 +6 1020.2 985.9
18 14.07 З 7 н/о н/о +9.4 +3.8 68 +6 +6 1019.8 985.5
19 14.07 З 8 н/о н/о +9.2 +4.2 71 +5 +5 1019.5 985.2
20 14.07 ЮЗ 10 н/о 10/10 600 м
[]
+9.2 +4.6 73 +4 +4 1020.3 986.0
21 14.07 З 5 н/о н/о +8.1 +6.1 87 +4 +4 1021.1 986.8
22 14.07 ЮЗ 9 н/о н/о +8.8 +4.8 76 +4 +4 1021.9 987.5
23 14.07 ЮЗ 7 н/о 10/10 600 м
[]
+9.7 +4.9 72 +6 +6 1022.6 988.2
00 15.07 ЮЗ 7 н/о н/о +9.6 +4.6 71 +6 +6 1022.8 988.4
01 15.07 ЮЗ 8 н/о н/о +10.4 +3.7 63 +7 +7 1023.2 988.8
02 15.07 ЮЗ 7 н/о 10/10 1000 м
[]
+11.4 +3.4 58 +8 +8 1022.9 988.5 +4.7
03 15.07 Ю 7 н/о н/о +11.7 +2.5 53 +9 +9 1022.5 988.1
04 15.07 ЮЗ 6 н/о н/о +13.1 +3.7 53 +11 +11 1022.4 988.0
05 15.07 ЮЗ 7 н/о 9/9 1000 м
[]
+13.3 +1.9 46 +11 +11 1022.5 988.1
06 15.07 ЮЗ 7 н/о н/о +13.1 +2.4 48 +11 +11 1022.7 988.3
07 15.07 ЮЗ 6 н/о н/о +11.4 +1.9 52 +9 +9 1022.9 988.5
08 15.07 Ю 3 н/о н/о +8.3 +0.8 59 +6 +6 1023.4 989.0
09 15.07 Ю 4 н/о н/о +8.8 +2.8 66 +6 +6 1024.0 989.6
10 15.07 З 3 н/о н/о +5.7 +0.5 69 +3 +3 1024.7 990.2
11 15.07 ЮЗ 4 н/о н/о +5.8 +2.1 77 +2 +2 1024.8 990.3
12 15.07 ЮЗ 4 н/о н/о +4.9 +1.6 79 +1 +1 1024.7 990.2
13 15.07 ЮЗ 4 н/о н/о +4.5 +1.7 82 0 0 1024.9 990.4
14 15.07 З 1 н/о н/о +3.0 +0.2 82 +3 +3 1024.5 990.0 +15.2
15 15.07 Ю 4 н/о н/о +6.2 +3.0 80 +3 +3 1023.8 989.4
16 15.07 ЮЗ 4 н/о н/о +4.4 +2.3 86 0 0 1023.8 989.4
17 15.07 ЮЗ 2 н/о 1/1 600 м
[]
+3.9 +2.3 89 +1 +1 1023.1 988.7
18 15.07 ЮЗ 5 н/о н/о +6.4 +4.4 87 +2 +2 1022.9 988.5
19 15.07 Ю 4 н/о н/о +6.2 +4.2 87 +2 +2 1022.8 988.4
20 15.07 З 3 н/о н/о +3.8 +2.8 93 -0 -0 1023.2 988.8
21 15.07 ЮЗ 4 н/о н/о +3.2 +2.6 96 -1 -1 1023.5 989.1
22 15.07 ЮЗ 5 н/о н/о +5.2 +4.8 97 +1 +1 1024.4 989.9
23 15.07 ЮЗ 7 н/о 5/5 300 м
[]
+9.4 +6.3 81 +6 +6 1024.9 990.4
00 16.07 ЮЗ 6 н/о н/о +11.0 +6.4 73 +8 +8 1025.2 990.7
01 16.07 ЮЗ 8 н/о н/о +11.7 +5.3 65 +9 +9 1025.1 990.6
02 16.07 ЮЗ 8 н/о 9/9 600 м
[]
+12.5 +5.0 60 +10 +10 1024.7 990.2 +3.0
03 16.07 ЮЗ 7 н/о н/о +14.0 +5.1 55 +12 +12 1023.7 989.3
04 16.07 ЮЗ 7 н/о н/о +14.8 +5.1 52 +13 +13 1023.2 988.8
05 16.07 Ю 7 н/о 1/1 600 м
[]
+14.0 +4.3 52 +12 +13 1023.2 988.8
06 16.07 ЮЗ 6 н/о н/о +13.6 +4.2 53 +12 +12 1023.2 988.8
07 16.07 ЮЗ 5 н/о н/о +12.7 +3.9 55 +11 +11 1023.4 989.0
08 16.07 ЮЗ 6 н/о 9/9 1000 м
[]
+12.3 +3.5 55 +10 +10 1023.5 989.1
09 16.07 ЮЗ 6 н/о н/о +11.7 +4.4 61 +9 +9 1024.1 989.7
10 16.07 ЮЗ 4 н/о н/о +10.3 +3.8 64 +8 +8 1024.5 990.0
11 16.07 ЮЗ 5 н/о 3/3 1000 м
[]
+9.6 +4.6 71 +7 +7 1024.5 990.0
12 16.07 ЮЗ 3 н/о н/о +9.4 +5.2 75 +7 +7 1024.6 990.1
13 16.07 ЮЗ 5 н/о н/о +9.7 +4.3 69 +7 +7 1024.5 990.0
14 16.07 ЮЗ 4 н/о 10/10 600 м
[]
+10.2 +4.6 68 +8 +8 1024.0 989.6 +15.3
15 16.07 ЮЗ 5 н/о н/о +8.3 +4.3 76 +5 +5 1023.5 989.1
16 16.07 ЮЗ 4 н/о н/о +7.1 +4.4 83 +4 +4 1023.3 988.9
17 16.07 ЮЗ 4 н/о н/о +6.8 +4.8 87 +3 +3 1022.8 988.4
18 16.07 Ю 3 н/о н/о +5.6 +3.8 88 +3 +3 1022.5 988.1
19 16.07 Ю 3 н/о н/о +6.0 +4.6 91 +3 +3 1022.2 987.8
20 16.07 Ю 1 н/о н/о +5.3 +4.4 94 +5 +5 1022.5 988.1
21 16.07 штиль 0 н/о н/о +4.6 +4.2 97 +3 +3 1022.7 988.3
22 16.07 Ю 2 н/о н/о +7.9 +6.5 91 +6 +6 1023.0 988.6
23 16.07 ЮЗ 3 н/о 10/10 600 м
[]
+9.8 +6.3 79 +8 +8 1023.3 988.9
00 17.07 ЮЗ 5 н/о н/о +11.1 +4.8 65 +9 +9 1023.6 989.2
01 17.07 Ю 6 н/о н/о +11.7 +4.2 60 +9 +9 1023.2 988.8
03 17.07 ЮЗ 5 н/о н/о +14.2 +4.2 51 +13 +13 1020.9 986.6
04 17.07 ЮЗ 5 н/о н/о +14.6 +4.0 49 +13 +13 1020.0 985.7
05 17.07 З 6 н/о н/о +14.4 +2.9 46 +13 +13 1019.5 985.2
06 17.07 З 5 н/о н/о +14.1 +3.0 47 +13 +13 1019.1 984.8
07 17.07 З 5 н/о н/о +12.4 +2.6 51 +10 +10 1019.3 985.0
08 17.07 ЮЗ 4 н/о н/о +8.7 +1.8 62 +6 +6 1019.5 985.2
09 17.07 ЮЗ 3 н/о н/о +8.7 +2.3 64 +7 +7 1020.0 985.7
10 17.07 ЮЗ 4 н/о н/о +8.0 +2.5 68 +5 +5 1020.2 985.9
11 17.07 ЮЗ 3 н/о н/о +7.0 +2.3 72 +5 +5 1020.2 985.9
12 17.07 Ю 2 н/о н/о +6.3 +2.2 75 +5 +5 1020.6 986.3
13 17.07 СВ 1 н/о н/о +6.5 +3.5 81 +5 +5 1020.5 986.2
14 17.07 штиль 0 н/о 10/10 1500 м
[]
+6.4 +3.2 80 +6 +6 1020.2 985.9 +15.7
15 17.07 СЗ 3 н/о н/о +7.2 +2.9 74 +5 +5 1019.9 985.6
16 17.07 СЗ 3 н/о н/о +6.8 +2.5 74 +4 +4 1019.8 985.5
17 17.07 СЗ 2 н/о н/о +4.3 +2.0 85 +2 +2 1019.5 985.2
18 17.07 З 2 н/о н/о +5.8 +3.0 82 +4 +4 1019.5 985.2
19 17.07 штиль 0 н/о н/о +5.1 +3.4 89 +4 +4 1019.2 984.9
20 17.07 З 4 н/о 6/6 1000 м
[]
+5.9 +2.9 81 +2 +2 1019.6 985.3
21 17.07 З 4 н/о н/о +5.1 +3.0 86 +1 +1 1020.1 985.8
22 17.07 З 4 н/о н/о +6.4 +3.4 81 +3 +3 1020.8 986.5
23 17.07 ЮЗ 5 н/о 5/5 300 м
[]
+10.6 +5.6 71 +8 +8 1021.2 986.9
00 18.07 ЮЗ 5 н/о н/о +11.1 +4.6 64 +9 +9 1021.4 987.0
01 18.07 Ю 5 н/о н/о +12.8 +4.0 55 +11 +11 1021.0 986.7
02 18.07 З 6 н/о 1/1 600 м
[]
+14.0 +4.0 51 +12 +15 1020.4 986.1 +4.2
03 18.07 З 6 н/о н/о +14.0 +2.9 47 +12 +12 1019.9 985.6

 

Местоположение метеостанции Даббо (Новый Южный Уэльс, Австралия): широта -32.21 долгота 148.56 высота над уровнем моря 285 м.

В архиве по умолчанию представлена погода в Даббо за последнюю неделю. Архивные данные за месяц целиком и за предыдущие месяцы, начиная с января 2011 года, Вы можете получить, выбрав интересующий диапазон дат из раскрывающегося списка и нажав кнопку "Ввод!".


*Определитесь, кто Вы:
робот инопланетянин человек

Внимание! Время в таблицах - всемирное. Для получения местного времени необходимо прибавить поправку, которая равна 10 ч.

Смотрите также архив погоды в соседних городах и на ближайших метеорологических станциях:

Погода в Транги (Новый Южный Уэльс, Австралия) (63 км)
Погода в Парксе (Новый Южный Уэльс, Австралия) (107 км)
Погода в Маджи (Новый Южный Уэльс, Австралия) (107 км)
Погода в Кунабарабране (Новый Южный Уэльс, Австралия) (120 км)
Погода в Кунамбле (Новый Южный Уэльс, Австралия) (138 км)
Погода в Ориндже (Новый Южный Уэльс, Австралия) (141 км)
Погода в Форбс аэропорту (Новый Южный Уэльс, Австралия) (142 км)
Погода в Мерриве (Новый Южный Уэльс, Австралия) (152 км)
Погода в Кондоболине (Новый Южный Уэльс, Австралия) (158 км)
Погода в Налло Маунтин (Новый Южный Уэльс, Австралия) (167 км)

Пояснения к столбцам:

Ветер - указаны скорость ветра в м/с - средняя за 10 мин, порывы в срок и между сроками (в фигурных скобках) и направление, откуда дует ветер: С - северный, СВ - северо-восточный, В - восточный, ЮВ - юго-восточный, Ю - южный, ЮЗ - юго-западный, З - западный, СЗ - северо-западный.
Видимость - горизонтальная дальность видимости в метрах или километрах. При видимости от 1 до 10 км при отсутствии осадков обычно наблюдается дымка, при ухудшении видимости до 1 км и менее - туман. В сухую погоду видимость может ухудшаться дымом, пылью или мглою.
Явления - указаны атмосферные явления, наблюдавшиеся в срок или в последний час перед сроком; фигурными скобками обозначены явления, наблюдавшиеся между сроками (за 1-3 часа до срока); квадратными скобками обозначены град или гололедные отложения с указанием их диаметра в мм.
Облачность - указаны через наклонную черту общая и нижняя облачность в баллах и высота нижней границы облаков в метрах; квадратными скобками обозначены формы облаков: Ci - перистые, Cs - перисто-слоистые, Cc - перисто-кучевые, Ac - высококучевые, As - высокослоистые, Sc - слоисто-кучевые, Ns - слоисто-дождевые, Cu - кучевые, Cb - кучево-дождевые. Подробнее классификацию облаков см. в Атласе облаков (PDF).
T - Температура воздуха - температура, измеренная на высоте 2 м над землей.
Td - Температура точки росы - температура, при понижении до которой содержащийся в воздухе водяной пар достигнет насыщения.
f - Относительная влажность воздуха - влажноcть воздуха, измеренная на высоте 2 м над землей.
Te - Эффективная температура - температура, которую ощущает одетый по сезону человек в тени. Характеристика душности погоды. При расчете учитывается влияние влажности воздуха и скорости ветра на теплоощущения человека.
Tes - Эффективная температура на солнце - температура, которую ощущает человек, с поправкой на солнечный нагрев. Характеристика знойности погоды. Зависит от высоты солнца над горизонтом, облачности и скорости ветра. Ночью, в пасмурную погоду, а также при ветре 12 м/с и более поправка равна нулю.
P - Атмосферное давление - приведенное к уровню моря атмосферное давление.
Po - Атмосферное давление - измеренное на уровне метеостанции атмосферное давление.
Tmin - Минимальная температура - минимум температуры воздуха на высоте 2 м над землей.
Tmax - Максимальная температура - максимум температуры воздуха на высоте 2 м над землей.
R - Количество осадков - Количество выпавших осадков за период времени, мм. При наведении курсора мыши на число - период времени, за который выпало указанное количество осадков.
R24 - Количество осадков - Количество выпавших осадков за 24 часа, мм.
S - Снежный покров - Высота снежного покрова, см. При наведении курсора мыши на число - состояние снежного покрова и степень покрытия местности в баллах.